Weather History for Lafayette, IN

Change the Weather History Date:

Saturday, December 17, 2011

  Actual Average Record
Temperature  
Mean Temperature 30 °F 30 °F  
Max Temperature 35 °F 37 °F 58 °F (1984)
Min Temperature 24 °F 22 °F 1 °F (1972)
Degree Days  
Heating Degree Days 35 35  
Month to date heating degree days 495 555  
Since 1 July heating degree days 1414 1656  
Cooling Degree Days 0 0  
Month to date cooling degree days 0 0  
Year to date cooling degree days 1246 983  
Moisture  
Dew Point 27 °F    
Average Humidity 85    
Maximum Humidity 100    
Minimum Humidity 70    
Precipitation  
Precipitation T in 0.07 in 0.74 in (1957)
Month to date precipitation 2.16 1.47  
Year to date precipitation 43.43 35.54  
Sea Level Pressure  
Sea Level Pressure 30.29 in    
Wind  
Wind Speed 4 mph (WSW)    
Max Wind Speed 10 mph    
Max Gust Speed 14 mph    
Visibility 9 miles    
Events      
T = Trace of Precipitation, MM = Missing Value Source: NWS Daily Summary

Daily Weather History Graph

Daily Weather History Graph

Search for Another Location

Airport:

Trip Planner

Search our weather history database for the weather conditions in past years. The results will help you decide how hot, cold, wet, or windy it might be!

Date:

Astronomy

Dec. 17, 2011 Rise Set
Actual Time 8:04 AM EST 5:22 PM EST
Civil Twilight 7:34 AM EST 5:53 PM EST
Nautical Twilight 6:59 AM EST 6:27 PM EST
Astronomical Twilight 6:26 AM EST 7:00 PM EST
Moon No Moon Rise 12:18 PM EST (12/17)
Length of Visible Light 10h 19m
Length of Day
9h 17m
Waning Gibbous, 54% of the Moon is Illuminated
Dec 17
Waning Gibbous
Dec 17
Last Quarter
Dec 24
New
Jan 1
First Quarter
Jan 9
Full

Hourly Weather History & Observations

Time (EST) Temp. Windchill Dew Point Humidity Pressure Visibility Wind Dir Wind Speed Gust Speed Precip Events Conditions
12:54 AM 26.1 °F - 24.1 °F 92% 30.36 in 10.0 mi Calm Calm - N/A   Clear
1:54 AM 26.1 °F - 24.1 °F 92% 30.36 in 10.0 mi Calm Calm - N/A   Clear
2:54 AM 25.0 °F 19.3 °F 24.1 °F 96% 30.38 in 10.0 mi West 4.6 mph - N/A   Clear
3:54 AM 26.1 °F 20.5 °F 24.1 °F 92% 30.36 in 10.0 mi WNW 4.6 mph - N/A   Partly Cloudy
4:54 AM 28.0 °F - 25.0 °F 88% 30.35 in 10.0 mi Calm Calm - N/A   Overcast
5:54 AM 28.0 °F - 26.1 °F 92% 30.35 in 10.0 mi Calm Calm - N/A   Overcast
6:54 AM 28.9 °F - 27.0 °F 92% 30.35 in 10.0 mi Calm Calm - N/A   Overcast
8:54 AM 28.9 °F 21.9 °F 26.1 °F 89% 30.32 in 4.0 mi SE 6.9 mph - 0.00 in   Overcast
9:54 AM 30.0 °F 24.1 °F 26.1 °F 85% 30.33 in 10.0 mi SW 5.8 mph - N/A   Overcast
10:54 AM 30.9 °F 25.2 °F 25.0 °F 79% 30.34 in 10.0 mi SSW 5.8 mph - N/A   Overcast
11:54 AM 30.9 °F 25.2 °F 26.1 °F 82% 30.32 in 10.0 mi SSW 5.8 mph - N/A   Overcast
12:54 PM 32.0 °F 25.6 °F 27.0 °F 82% 30.30 in 10.0 mi SW 6.9 mph - N/A   Overcast
1:16 PM 33.8 °F 27.0 °F 26.6 °F 75% 30.25 in 10.0 mi WSW 8.1 mph - N/A   Overcast
1:54 PM 34.0 °F 27.2 °F 28.0 °F 79% 30.25 in 10.0 mi SSW 8.1 mph - N/A   Overcast
2:54 PM 35.1 °F 28.6 °F 28.0 °F 76% 30.24 in 10.0 mi SSW 8.1 mph - N/A   Overcast
3:54 PM 35.1 °F 27.9 °F 27.0 °F 72% 30.24 in 10.0 mi SW 9.2 mph - N/A   Overcast
4:54 PM 35.1 °F 31.0 °F 28.0 °F 76% 30.24 in 10.0 mi WSW 4.6 mph - N/A   Overcast
5:54 PM 35.1 °F 31.0 °F 28.0 °F 76% 30.25 in 10.0 mi WSW 4.6 mph - N/A   Overcast
7:21 PM 33.8 °F 30.8 °F 30.2 °F 87% 30.22 in 10.0 mi WSW 3.5 mph - N/A   Overcast
7:54 PM 33.1 °F 28.7 °F 30.0 °F 89% 30.24 in 10.0 mi West 4.6 mph - N/A   Mostly Cloudy
8:54 PM 32.0 °F 27.5 °F 30.0 °F 92% 30.24 in 8.0 mi West 4.6 mph - N/A   Partly Cloudy
9:54 PM 30.9 °F 26.2 °F 28.9 °F 92% 30.25 in 7.0 mi West 4.6 mph - N/A   Clear
10:36 PM 32.0 °F 26.4 °F 30.2 °F 93% 30.24 in 8.0 mi West 5.8 mph - N/A   Mostly Cloudy
10:54 PM 32.0 °F 28.7 °F 30.0 °F 92% 30.26 in 8.0 mi West 3.5 mph - N/A   Overcast
11:54 PM 32.0 °F 27.5 °F 30.0 °F 92% 30.25 in 7.0 mi WSW 4.6 mph - N/A   Mostly Cloudy